Wind_Speed
25 25 25 24 24 25 26 27 27 27 27 27 27 28 28 28 28 28 28 28 28 28 29 29 29 29 30 30 31 32 32 33 33 34 34 35 36 36 36 37 38 39
26 26 26 25 25 25 26 27 27 27 28 28 28 28 28 28 28 29 29 29 29 30 30 30 30 31 31 31 32 33 33 34 35 36 36 36 37 37 38 38 39 40
27 27 27 26 26 26 27 28 28 28 28 29 29 30 30 30 30 30 31 31 32 33 33 34 34 34 34 34 34 34 35 35 36 37 38 39 39 39 40 40 41 41
29 29 28 28 28 28 28 29 30 29 30 30 31 31 32 32 32 32 33 33 34 35 36 36 36 36 36 36 36 36 37 37 38 38 39 40 41 41 41 42 42 43
30 30 30 30 30 29 30 30 31 31 30 31 31 32 32 33 33 34 34 35 35 36 37 37 38 38 38 38 39 39 39 39 39 40 40 40 41 42 43 43 43 44
32 32 32 32 31 31 31 32 32 32 32 32 32 33 33 34 34 35 36 36 37 37 37 38 39 39 40 40 40 41 41 41 41 42 42 42 42 43 43 44 44 45
30 31 32 33 34 34 34 34 34 34 33 33 33 33 34 34 35 35 36 36 37 38 38 39 39 40 41 41 42 43 43 44 43 44 44 44 44 44 45 45 45 46
27 28 30 31 33 33 34 33 33 33 33 33 33 33 33 34 35 35 36 36 37 38 39 40 41 42 42 43 44 44 45 46 46 46 46 46 46 47 47 47 46 47
27 27 28 28 29 29 30 31 31 31 31 31 31 32 33 34 35 36 36 37 38 39 40 41 42 43 44 45 46 46 47 47 48 48 48 48 48 48 49 49 49 48
29 29 30 30 30 31 31 32 32 32 31 31 32 33 34 36 37 37 38 39 40 40 41 42 43 44 45 46 47 47 48 49 50 50 51 50 50 50 51 51 51 51
32 33 33 34 34 35 35 34 34 33 33 33 34 35 37 38 39 39 40 41 41 41 42 42 43 44 45 46 47 48 49 50 51 52 52 52 52 52 53 53 53 53
33 34 35 37 39 39 38 37 36 35 35 36 36 37 38 39 39 40 40 41 40 41 41 41 42 43 43 44 45 47 48 49 51 52 54 54 54 54 54 55 55 55
35 37 39 41 43 43 42 40 40 39 38 38 37 38 40 40 40 40 40 40 39 39 39 39 40 40 41 42 43 45 46 48 49 51 53 55 56 56 56 57 57 57
40 41 42 44 45 45 45 43 43 42 40 39 39 39 40 40 40 40 40 39 38 37 37 37 38 38 39 41 43 44 46 47 48 50 51 53 55 56 58 58 59 59
44 45 46 47 46 46 47 46 45 44 42 42 41 41 41 41 40 40 39 38 37 37 37 37 37 38 39 41 43 44 46 47 48 50 51 52 53 54 56 58 59 60
48 48 48 50 49 48 49 49 47 46 46 45 44 44 43 41 41 40 39 38 38 37 37 38 38 39 41 43 45 47 48 49 50 50 51 52 53 54 55 56 57 59
49 49 48 50 53 52 53 53 51 50 49 48 47 45 44 42 41 40 39 38 38 38 38 39 39 40 43 45 47 49 50 51 52 53 53 54 54 55 55 55 56 57
50 51 50 52 56 58 58 57 55 53 52 49 47 45 43 42 41 40 40 40 39 39 39 40 40 42 44 47 49 51 52 53 53 54 55 56 56 56 56 57 57 57
52 51 52 54 57 60 60 59 56 54 52 49 46 44 42 42 42 41 41 41 41 41 40 40 41 43 45 48 50 51 53 54 55 56 57 58 58 58 58 58 58 58
53 52 53 56 57 57 57 57 54 52 50 47 44 42 41 42 42 42 43 43 43 42 41 41 43 45 47 49 51 52 54 55 57 59 60 60 60 59 59 59 59 59
53 52 54 56 56 56 57 56 53 49 46 44 41 40 40 41 43 44 45 45 44 44 43 44 45 47 50 51 53 54 56 57 59 61 62 63 62 61 60 60 60 60
56 53 53 54 56 58 59 57 51 45 41 38 37 37 40 43 45 46 46 46 46 46 46 47 48 50 52 53 55 57 60 61 63 63 64 64 63 62 61 61 61 61
59 55 53 56 59 61 59 55 48 41 37 35 36 39 42 45 46 46 46 46 46 47 47 48 50 53 54 56 58 61 64 66 66 66 64 63 62 61 61 62 62 62
59 55 53 55 57 57 55 50 44 38 35 35 37 39 41 43 44 45 45 46 47 48 49 50 52 54 56 59 61 64 67 67 67 65 63 61 60 59 59 59 59 59
58 57 55 55 56 56 50 44 40 37 36 38 38 38 40 41 43 44 46 47 48 49 51 52 54 56 59 62 64 66 66 65 63 61 59 58 57 55 54 53 53 54
58 57 55 55 57 55 48 42 40 40 42 43 41 41 41 42 44 45 46 47 49 50 52 54 56 58 61 64 65 64 63 61 60 58 57 55 53 51 50 50 51 53
Wind_Direction
255 255 255 255 254 254 253 253 253 253 254 254 254 254 255 256 256 255 255 254 255 257 259 260 260 260 259 258 258 258 258 258 258 258 257 257 258 259 259 259 260 261
255 255 254 254 254 253 253 252 252 253 253 253 253 252 252 253 254 255 255 255 254 255 255 257 258 260 261 261 261 260 260 260 260 261 261 260 259 260 260 260 260 260
254 254 254 253 253 253 253 252 252 252 253 253 253 253 252 253 254 255 256 256 257 257 257 257 257 258 259 261 261 262 262 262 262 262 263 263 262 261 261 261 261 261
254 254 254 253 253 253 254 254 254 254 254 254 255 255 254 254 255 256 257 258 258 259 259 259 260 260 260 261 261 261 261 262 262 262 262 263 264 264 263 262 262 262
257 256 256 255 256 257 257 257 257 257 257 256 257 257 257 257 258 258 259 260 261 262 262 263 263 263 263 263 263 263 262 262 261 261 261 261 262 263 264 263 263 263
261 261 260 260 261 261 262 262 262 262 261 261 261 261 261 262 262 262 262 262 263 264 265 265 265 265 265 265 265 265 264 263 262 262 262 261 260 261 262 263 264 264
268 267 266 265 265 265 265 265 265 265 265 265 265 264 265 265 265 266 266 266 267 267 268 268 268 268 268 267 267 267 266 265 264 263 263 263 262 261 260 261 262 263
273 272 271 269 267 266 265 265 266 266 266 267 267 268 268 268 269 269 270 270 271 271 271 271 271 271 271 271 270 270 269 268 267 265 265 264 264 263 262 261 260 260
277 275 274 273 271 269 268 267 267 267 268 269 270 272 272 273 274 275 276 276 276 275 274 274 273 273 273 272 272 272 272 271 270 269 268 267 266 265 264 263 262 260
279 277 275 273 273 274 273 271 269 269 270 272 273 275 277 279 280 280 280 280 280 279 278 277 276 275 275 274 274 273 273 272 272 271 270 269 268 267 266 265 264 263
277 276 275 274 274 275 275 272 270 269 270 271 274 277 280 282 282 283 283 283 282 281 280 279 279 278 278 277 276 276 275 274 273 272 271 270 269 268 267 266 265 264
274 275 276 277 276 275 273 272 270 268 269 271 273 277 281 282 283 284 284 283 283 282 281 281 280 280 280 280 279 279 278 277 275 274 273 271 270 269 268 267 266 264
270 273 275 276 276 274 272 270 269 268 268 269 272 276 279 281 282 283 284 283 283 282 282 281 281 281 282 282 282 282 281 280 278 277 275 274 273 271 270 269 267 266
269 270 272 274 274 272 269 268 267 267 266 267 271 276 277 278 279 280 281 281 281 281 281 281 281 281 282 283 284 284 284 283 282 280 279 277 275 274 272 270 269 268
268 270 272 274 273 268 266 266 265 264 264 266 271 274 275 274 276 277 278 278 279 280 281 281 281 280 281 283 284 285 285 285 284 283 282 280 278 277 274 272 271 269
269 269 270 274 275 268 263 264 263 262 263 266 270 273 272 271 272 273 275 276 277 279 281 281 280 279 281 283 284 285 285 286 286 285 284 283 281 279 277 275 273 271
267 267 268 272 274 269 264 262 262 262 263 266 269 270 269 268 269 271 272 274 276 277 280 280 278 278 281 284 285 286 286 287 287 287 286 284 283 281 279 277 275 273
264 266 268 269 270 270 265 261 261 263 263 264 266 267 266 266 267 269 271 273 274 276 278 278 276 277 281 284 286 286 287 287 287 287 286 285 283 281 279 277 275 273
264 265 267 266 269 272 267 260 261 263 262 262 262 263 264 265 267 269 271 272 272 274 276 276 276 278 282 285 286 287 288 288 287 287 287 286 284 281 279 277 275 273
263 264 264 266 270 274 270 264 263 264 260 258 258 259 261 264 267 269 270 270 271 272 273 275 276 280 284 286 288 289 289 288 287 287 287 287 285 283 280 278 275 273
263 263 265 267 269 271 270 267 265 262 257 255 256 259 263 266 267 268 268 268 269 270 271 274 277 281 284 287 288 289 290 290 289 288 287 286 285 283 281 279 276 274
259 261 264 265 265 266 267 265 263 259 254 255 259 264 266 266 265 266 267 268 269 270 272 275 278 281 284 286 288 289 290 290 290 289 288 286 284 282 280 278 276 274
257 258 260 262 262 261 260 259 256 252 251 261 268 267 265 264 264 266 267 269 271 272 274 276 278 281 283 285 287 288 289 290 291 290 287 284 281 280 278 277 276 274
257 256 256 258 261 262 259 254 248 245 256 271 275 269 266 266 266 267 269 271 273 275 276 278 279 281 284 286 287 288 290 290 290 287 284 281 279 278 278 277 275 274
256 255 254 256 261 266 264 253 245 252 270 281 278 272 271 270 269 270 272 274 275 277 278 279 281 283 285 286 288 289 290 289 287 284 282 281 280 279 277 276 275 274
254 254 253 255 260 265 265 257 255 268 280 282 277 273 273 272 272 273 275 276 278 279 280 282 284 285 286 287 288 289 288 287 286 284 283 282 280 279 277 276 275 274
Height
5734 5735 5735 5736 5737 5737 5737 5738 5739 5740 5741 5742 5743 5743 5744 5745 5745 5746 5747 5747 5748 5748 5748 5749 5749 5750 5751 5751 5751 5752 5752 5753 5754 5754 5755 5755 5756 5757 5758 5758 5758 5759
5731 5732 5733 5733 5734 5734 5735 5735 5736 5737 5738 5739 5740 5740 5741 5741 5742 5742 5743 5743 5744 5745 5745 5745 5746 5746 5747 5747 5747 5748 5748 5749 5749 5750 5750 5751 5752 5752 5753 5754 5754 5754
5728 5729 5729 5730 5731 5731 5732 5732 5733 5734 5734 5735 5736 5737 5738 5738 5738 5739 5739 5739 5740 5740 5741 5741 5742 5742 5743 5743 5743 5744 5744 5745 5745 5745 5746 5746 5747 5747 5748 5749 5749 5750
5725 5726 5726 5727 5727 5728 5728 5729 5729 5730 5731 5731 5732 5732 5733 5734 5734 5734 5735 5735 5735 5736 5736 5737 5737 5738 5738 5739 5739 5739 5740 5740 5741 5741 5741 5741 5742 5742 5743 5744 5744 5744
5722 5722 5722 5723 5723 5724 5724 5725 5725 5726 5727 5727 5727 5728 5728 5729 5729 5730 5730 5730 5731 5731 5731 5732 5732 5733 5733 5733 5734 5734 5735 5735 5736 5736 5736 5737 5737 5737 5737 5738 5739 5739
5718 5719 5719 5719 5720 5720 5721 5721 5721 5722 5722 5723 5723 5723 5724 5724 5724 5725 5725 5726 5726 5726 5726 5727 5727 5727 5728 5728 5728 5728 5729 5729 5730 5731 5731 5731 5732 5732 5732 5733 5733 5733
5715 5715 5715 5715 5716 5716 5717 5717 5717 5717 5717 5718 5718 5719 5719 5719 5719 5720 5720 5721 5721 5721 5721 5721 5722 5722 5722 5722 5722 5722 5723 5723 5724 5725 5725 5725 5726 5726 5727 5727 5728 5728
5711 5711 5711 5711 5711 5712 5712 5712 5713 5713 5713 5713 5713 5714 5714 5714 5715 5715 5715 5716 5716 5716 5716 5716 5716 5716 5716 5716 5716 5716 5716 5717 5717 5718 5719 5719 5719 5719 5720 5721 5722 5722
5707 5707 5707 5707 5707 5708 5708 5708 5708 5708 5708 5708 5708 5709 5709 5709 5710 5710 5710 5710 5710 5710 5711 5710 5710 5710 5710 5710 5710 5710 5710 5710 5710 5711 5711 5712 5712 5713 5713 5713 5714 5715
5703 5703 5703 5703 5704 5704 5704 5704 5704 5704 5704 5704 5704 5704 5704 5704 5705 5705 5705 5705 5705 5705 5705 5705 5704 5704 5704 5704 5704 5704 5704 5703 5703 5703 5704 5704 5705 5705 5705 5706 5706 5707
5699 5699 5698 5699 5699 5699 5699 5699 5699 5699 5699 5699 5699 5699 5699 5699 5700 5700 5699 5699 5699 5699 5699 5699 5698 5698 5698 5697 5697 5697 5697 5697 5697 5697 5697 5697 5697 5697 5697 5698 5698 5699
5695 5694 5694 5694 5694 5694 5694 5694 5694 5694 5694 5694 5694 5694 5694 5694 5694 5694 5694 5694 5693 5693 5693 5692 5692 5692 5691 5691 5691 5691 5691 5690 5690 5690 5690 5690 5690 5690 5690 5690 5690 5691
5690 5690 5689 5689 5689 5689 5689 5689 5689 5689 5688 5689 5689 5689 5689 5689 5689 5688 5688 5688 5688 5687 5687 5687 5686 5686 5685 5685 5685 5684 5684 5684 5684 5683 5683 5683 5683 5683 5682 5682 5682 5682
5685 5685 5684 5683 5683 5684 5684 5684 5684 5683 5683 5683 5683 5683 5684 5684 5683 5683 5683 5682 5682 5682 5681 5681 5681 5680 5680 5679 5679 5678 5678 5677 5677 5677 5676 5676 5675 5675 5675 5674 5674 5674
5679 5678 5678 5677 5677 5678 5678 5678 5678 5678 5678 5678 5678 5678 5678 5678 5678 5678 5677 5677 5677 5676 5676 5676 5675 5675 5674 5674 5673 5672 5672 5671 5671 5670 5670 5669 5668 5668 5667 5667 5666 5666
5672 5672 5671 5670 5670 5671 5671 5672 5672 5672 5672 5672 5673 5673 5673 5673 5673 5672 5672 5672 5671 5671 5670 5670 5670 5669 5668 5668 5667 5666 5666 5665 5665 5664 5663 5662 5661 5661 5660 5659 5658 5658
5666 5665 5665 5664 5663 5663 5664 5665 5665 5665 5666 5666 5667 5667 5667 5667 5667 5667 5666 5666 5666 5665 5665 5664 5664 5663 5662 5661 5660 5659 5659 5658 5658 5657 5656 5655 5654 5653 5653 5652 5650 5650
5659 5660 5659 5657 5655 5656 5656 5658 5658 5659 5659 5660 5660 5661 5661 5662 5661 5661 5661 5660 5660 5659 5659 5658 5658 5657 5656 5655 5654 5653 5652 5651 5650 5649 5649 5648 5646 5645 5644 5643 5643 5642
5653 5654 5653 5651 5650 5649 5649 5650 5652 5653 5653 5653 5654 5655 5655 5656 5656 5655 5655 5655 5654 5653 5653 5652 5652 5651 5650 5648 5647 5646 5645 5644 5642 5641 5640 5639 5638 5637 5636 5635 5634 5633
5646 5647 5647 5645 5644 5644 5644 5645 5646 5647 5647 5647 5648 5648 5649 5650 5650 5649 5649 5649 5648 5647 5646 5645 5644 5643 5642 5641 5640 5639 5637 5636 5635 5633 5632 5630 5629 5628 5627 5626 5625 5624
5639 5641 5641 5639 5638 5638 5638 5639 5641 5641 5641 5642 5642 5643 5643 5644 5644 5643 5643 5642 5641 5640 5639 5638 5637 5636 5635 5634 5633 5631 5629 5628 5626 5624 5623 5621 5620 5618 5617 5616 5615 5614
5632 5633 5634 5632 5631 5631 5632 5634 5635 5635 5636 5637 5637 5637 5638 5637 5637 5637 5636 5635 5634 5633 5632 5631 5630 5628 5627 5626 5624 5622 5621 5619 5617 5615 5614 5612 5611 5609 5607 5606 5605 5604
5624 5626 5627 5625 5623 5623 5625 5627 5628 5629 5631 5632 5632 5631 5631 5630 5630 5630 5629 5628 5627 5626 5625 5624 5623 5621 5619 5618 5616 5613 5611 5609 5607 5605 5604 5602 5601 5599 5597 5596 5595 5594
5617 5619 5620 5618 5617 5617 5618 5620 5622 5623 5625 5625 5625 5624 5624 5623 5623 5623 5622 5621 5620 5619 5617 5616 5615 5613 5611 5609 5607 5604 5601 5599 5597 5595 5594 5592 5591 5589 5587 5586 5585 5584
5610 5610 5611 5612 5612 5612 5614 5616 5617 5617 5617 5617 5617 5617 5617 5616 5616 5616 5615 5614 5613 5611 5610 5609 5608 5606 5603 5600 5598 5594 5591 5589 5586 5584 5583 5582 5580 5579 5578 5577 5576 5575
5601 5601 5603 5605 5606 5607 5609 5611 5611 5611 5610 5611 5611 5611 5610 5610 5609 5609 5608 5607 5605 5604 5602 5601 5599 5597 5594 5591 5588 5585 5581 5578 5576 5574 5573 5571 5570 5570 5569 5568 5567 5565